Location: Unspecified
(0.0000°N, 0.0000°E)
Time: 18:47:56
(UTC+00:00)

Courier 1B - Pass Details

Date: 25 November 2019
Orbit: 963 x 1209 km, 28.3° (Epoch: 06 December)

Event Time Altitude Azimuth Distance (km) Brightness Sun altitude
Rises 02:35:38 0° 284° (WNW) 4,078 - -43.9°
Reaches altitude 10° 02:40:18 10° 308° (NW) 3,078 - -42.9°
Maximum altitude 02:43:56 14° 337° (NNW) 2,754 - -42.1°
Drops below altitude 10° 02:47:29 10° 6° (N) 2,999 - -41.3°
Sets 02:51:56 0° 31° (NNE) 3,899 - -40.3°
Exits shadow 02:52:03 - 32° (NNE) 3,930 10.7 -40.3°
